BEIDOU-2 M6 (C14)

Last updated on Wed Aug 26 2026 00:04:16 GMT+0000 (Coordinated Universal Time)

1 38775U 12050B 26236.56110351 -.00000007 00000+0 00000+0 0 9995 2 38775 56.6075 60.6359 0011535 4.7398 355.3324 1.86231066 94580
UTC large
Height (km)
Speed (km/s)
/
Latitude / Longitude
Inclination (degrees)
Orbital Period (minutes)
Azimuth
Elevation
Range (km)
Doppler Factor

Next 0 passes for location: London (51.5072 / 0.1276)

No passes found over London.
BEIDOU-2 M6 (C14)